Location: Del Oro Observatory
(38.3044°N, 104.8119°W)
Time: 21:32:42
(UTC-06:00)

Cosmos 1602 Rocket - Visible Passes

Search period start: 22 July 2014 00:00
Search period end: 01 August 2014 00:00
Orbit: 607 x 634 km, 82.5° (Epoch: 22 July)

Date Brightness Start Highest point End Pass type
(mag) Time Alt. Az. Time Alt. Az. Time Alt. Az.
22 Jul 5.5 00:02:20 10° NW 00:05:17 22° WNW 00:05:17 22° WNW visible
22 Jul 3.9 22:41:41 10° N 22:45:55 52° ENE 22:45:55 52° ENE visible
23 Jul 6.2 00:21:43 10° WNW 00:23:06 12° W 00:23:06 12° W visible
23 Jul 3.6 22:59:25 10° N 23:03:45 78° WNW 23:03:45 78° WNW visible
24 Jul 5.4 21:40:46 10° NNE 21:43:34 16° ENE 21:44:25 16° E visible
24 Jul 4.6 23:17:29 10° NNW 23:21:36 39° W 23:21:36 39° W visible
25 Jul 4.5 21:57:41 10° NNE 22:01:37 30° ENE 22:02:17 28° E visible
25 Jul 5.6 23:35:59 10° NW 23:39:16 21° W 23:39:28 21° W visible
26 Jul 3.6 22:15:08 10° N 22:19:32 58° E 22:20:10 52° ESE visible
26 Jul 6.3 23:55:53 10° WNW 23:56:49 11° W 23:57:21 10° W visible
27 Jul 3.7 22:32:56 10° NNW 22:37:22 71° W 22:38:04 58° SSW visible
28 Jul 5.3 21:14:04 10° NNE 21:17:05 18° ENE 21:18:48 15° E visible
28 Jul 4.8 22:51:03 10° NNW 22:55:05 35° W 22:56:00 32° WSW visible
29 Jul 4.4 21:31:06 10° NNE 21:35:07 33° ENE 21:36:45 25° ESE visible
29 Jul 5.7 23:09:39 10° NW 23:12:43 19° W 23:13:57 17° WSW visible
30 Jul 3.6 21:48:36 10° N 21:53:02 65° E 21:54:43 35° SSE visible
31 Jul 3.9 22:06:27 10° NNW 22:10:50 63° W 22:12:43 32° SSW visible
